User: anonymous   Login
Location: Central Coast
(33.3208°S, 151.2336°E)
Time: 18:52:29
(UTC+11:00)
Language:

Envisat - Orbit

View from above orbital plane
View from above orbital plane
View from above satellite
View from above satellite

Ground track
Ground track

The orbit data is extracted from the following two-line orbital elements,

1 27386U 02009A   17296.84246678  .00000009  00000-0  16622-4 0  9997
2 27386  98.2176 336.6536 0001267  87.4785 272.6540 14.37906265819566
Epoch (UTC): 23 October 2017 20:13:09
Eccentricity: 0.0001267
inclination: 98.2176°
perigee height: 764 km
apogee height: 766 km
right ascension of ascending node: 336.6536°
argument of perigee: 87.4785°
revolutions per day: 14.37906265
mean anomaly at epoch: 272.6540°
orbit number at epoch: 81956

The dashed part of the orbit path shows where the satellite is in the earth's shadow,  

DLR